Location: Anaheim
(33.8350°N, 117.9140°W)
Time: 18:17:35
(UTC-08:00)

OTV 5 (USA 277) - Visible Passes

Search period start: 21 February 2019 00:00
Search period end: 03 March 2019 00:00
Orbit: 342 x 346 km, 54.5° (Epoch: 17 February)

Date Brightness Start Highest point End Pass type
(mag) Time Alt. Az. Time Alt. Az. Time Alt. Az.
21 Feb ? 18:57:23 10° SSW 18:59:52 45° SSE 18:59:52 45° SSE visible
22 Feb ? 19:21:08 10° WSW 19:23:38 33° NW 19:23:38 33° NW visible
23 Feb ? 18:09:50 10° SSW 18:12:36 44° SE 18:15:22 10° NE visible
23 Feb ? 19:46:41 10° NW 19:47:15 11° NW 19:47:15 11° NW visible
24 Feb ? 18:33:32 10° WSW 18:36:13 35° NW 18:38:55 10° NNE visible
25 Feb ? 18:58:57 10° WNW 19:00:06 12° NW 19:01:16 10° NNW visible
27 Feb ? 18:11:14 10° WNW 18:12:32 12° NW 18:13:49 10° N visible
